シュヴァスマン-ヴァハマン第2彗星

31P/Schwassmann-Wachmann 2 (2010)

English version
Home page
Updated on February 10, 2013

---------------------------------------------------------------------

・ プロフィール

・ 写真集

・ 軌道要素

Epoch 2010 Oct. 11.0 TT = JDT 2455480.5
T 2010 Sept. 29.47725 TT                                MPC
q   3.4243209            (2000.0)            P               Q
n   0.11280064     Peri.   17.93313     -0.66982288     -0.73899137
a   4.2422378      Node   114.18851     +0.67117232     -0.64423657
e   0.1928032      Incl.    4.54673     +0.31759254     -0.19710656
P   8.74
From 592 observations 2000 Nov. 24-2012 Apr. 28, mean residual 0".6.

・ 星図

・ 光度変化

        m1 = 7.7 + 5 logΔ + 15.0 log r

---------------------------------------------------------------------

軌道要素はM.P.E.C. 2012-H90に掲載されたものです。
星図は StellaNavigator Ver.2.0 for Windows (アストロアーツ編著 / アスキー出版局刊) で作成したものです。
光度グラフはComet for Windowsで作成したものです。

---------------------------------------------------------------------

Copyright(C) Seiichi Yoshida (comet@aerith.net). All rights reserved.